KLPR

Details ICAO KLPR (LPR)
Name LORAIN CO RGNL
Region United States
Timezone America/New_York (UTC-4.0)
Plans Departing 8
Arriving 3
Stats Elevation 793 ft / 242 m (AMSL)
Location 41.344276° -82.177627°
Runways 1
Magnetic Variation 7.990° W
Sunrise 2018-05-26 10:02:31 UTC / 2018-05-26 06:02:31 Local
Sunset 2018-05-27 00:51:55 UTC / 2018-05-26 20:51:55 Local
Advertisement - Login to hide

Runways

ID Width Length Bearing (true) Bearing (mag) Surface Threshold Offset Overrun Length
07 98 ft / 30 m 4,993 ft / 1,522 m 64.93° 72.92° Asphalt 0 ft / 0 m 0 ft / 0 m
25 98 ft / 30 m 4,993 ft / 1,522 m 244.94° 252.93° Asphalt 0 ft / 0 m 0 ft / 0 m

Approach Navaids

Runway Type Ident Frequency Range Bearing (true) Bearing (mag) Slope Elevation
07 Localiser ILQG 111.70 MHz 18 nm / 33 km 64.93° 72.92° - 793 ft / 242 m (AMSL)
07 Glidescope ILQG 111.70 MHz 10 nm / 19 km 64.93° 72.92° 3.00° 792 ft / 241 m (AMSL)

Map

Weather


0- 5 10 15 20 25 30 35+ Temperature / ° C

Clouds and Precipitation
Forecast for 2018-05-26 12:00 UTC. Updated 3 hours ago

Ground ~20,000 ft ~40,000 ft Winds

METAR

KLPR 261353Z AUTO 31007KT 10SM BKN110 21/14 A2986 RMK AO2 SLP108 T02110144

TAF

Not found

Frequencies

Recorded 121.42 MHz ASOS
Clearance 125.70 MHz CLEVELAND CLNC DEL
Unicom 122.70 MHz CTAF/UNICOM
Approach 126.35 MHz CLEVELAND APP/DEP
Warning: Do not use this data for real-world aviation or navigation. No guarantee of current accuracy is given.